TimeEDT,TemperatureF,Dew PointF,Humidity,Sea Level PressureIn,VisibilityMPH,Wind Direction,Wind SpeedMPH,Gust SpeedMPH,PrecipitationIn,Events,Conditions,WindDirDegrees,DateUTC
12:35 AM,69.8,68.0,94,30.03,10.0,Calm,Calm,-,N/A,,Clear,0,2012-10-15 04:35:00
12:55 AM,69.8,68.0,94,30.03,10.0,SE,4.6,-,N/A,,Clear,130,2012-10-15 04:55:00
1:15 AM,68.0,66.2,94,30.02,10.0,SE,3.5,-,N/A,,Clear,140,2012-10-15 05:15:00
1:55 AM,68.0,64.4,88,30.02,10.0,Calm,Calm,-,N/A,,Clear,0,2012-10-15 05:55:00
2:15 AM,69.8,68.0,94,30.01,10.0,Calm,Calm,-,N/A,,Clear,0,2012-10-15 06:15:00
2:35 AM,68.0,68.0,100,30.01,10.0,Calm,Calm,-,N/A,,Clear,0,2012-10-15 06:35:00
2:55 AM,68.0,66.2,94,30.01,7.0,Calm,Calm,-,N/A,,Clear,0,2012-10-15 06:55:00
3:15 AM,68.0,66.2,94,30.00,7.0,Calm,Calm,-,N/A,,Clear,0,2012-10-15 07:15:00
3:35 AM,68.0,66.2,94,29.99,7.0,Calm,Calm,-,N/A,,Clear,0,2012-10-15 07:35:00
3:55 AM,68.0,66.2,94,29.99,7.0,Calm,Calm,-,N/A,,Clear,0,2012-10-15 07:55:00
4:15 AM,68.0,66.2,94,29.98,7.0,Calm,Calm,-,N/A,,Clear,0,2012-10-15 08:15:00
4:35 AM,66.2,64.4,94,29.98,3.0,Calm,Calm,-,N/A,,Mist,0,2012-10-15 08:35:00
4:55 AM,64.4,64.4,100,29.98,0.8,Calm,Calm,-,N/A,,Scattered Clouds,0,2012-10-15 08:55:00
5:15 AM,64.4,64.4,100,29.97,2.5,Calm,Calm,-,N/A,,Mist,0,2012-10-15 09:15:00
5:35 AM,64.4,62.6,94,29.98,0.8,Calm,Calm,-,N/A,,Mostly Cloudy,0,2012-10-15 09:35:00
5:55 AM,64.4,62.6,94,29.98,5.0,Calm,Calm,-,N/A,,Clear,0,2012-10-15 09:55:00
6:15 AM,64.4,62.6,94,29.98,3.0,Calm,Calm,-,N/A,,Mist,0,2012-10-15 10:15:00
6:55 AM,64.4,64.4,100,29.98,7.0,Calm,Calm,-,N/A,,Clear,0,2012-10-15 10:55:00
7:15 AM,64.4,64.4,100,29.98,1.5,Calm,Calm,-,N/A,,Mist,0,2012-10-15 11:15:00
7:35 AM,64.4,62.6,94,29.98,4.0,Calm,Calm,-,N/A,,Clear,0,2012-10-15 11:35:00
7:55 AM,64.4,62.6,94,29.99,0.8,Calm,Calm,-,N/A,,Mostly Cloudy,0,2012-10-15 11:55:00
8:15 AM,64.4,62.6,94,29.99,0.8,Calm,Calm,-,N/A,,Overcast,0,2012-10-15 12:15:00
8:35 AM,64.4,64.4,100,29.99,7.0,Calm,Calm,-,N/A,,Scattered Clouds,0,2012-10-15 12:35:00
8:55 AM,68.0,66.2,94,30.00,5.0,Calm,Calm,-,N/A,,Clear,0,2012-10-15 12:55:00
9:15 AM,68.0,68.0,100,30.00,4.0,Calm,Calm,-,N/A,,Clear,0,2012-10-15 13:15:00
9:35 AM,71.6,71.6,100,30.00,5.0,Calm,Calm,-,N/A,,Clear,0,2012-10-15 13:35:00
9:55 AM,71.6,69.8,94,29.99,7.0,South,3.5,-,N/A,,Clear,170,2012-10-15 13:55:00
10:15 AM,75.2,71.6,89,29.98,10.0,SSW,3.5,-,N/A,,Clear,210,2012-10-15 14:15:00
10:35 AM,77.0,71.6,83,29.98,10.0,WSW,4.6,-,N/A,,Clear,240,2012-10-15 14:35:00
10:55 AM,80.6,71.6,74,29.98,10.0,WNW,6.9,-,N/A,,Scattered Clouds,290,2012-10-15 14:55:00
11:15 AM,80.6,69.8,70,29.98,10.0,NW,8.1,-,N/A,,Clear,310,2012-10-15 15:15:00
11:35 AM,80.6,69.8,70,29.98,10.0,WNW,5.8,-,N/A,,Mostly Cloudy,300,2012-10-15 15:35:00
11:55 AM,80.6,69.8,70,29.97,10.0,WNW,6.9,-,N/A,,Scattered Clouds,300,2012-10-15 15:55:00
12:15 PM,80.6,69.8,70,29.96,10.0,WNW,5.8,-,N/A,,Mostly Cloudy,300,2012-10-15 16:15:00
12:55 PM,82.4,69.8,66,29.95,10.0,West,10.4,-,N/A,,Scattered Clouds,270,2012-10-15 16:55:00
1:15 PM,80.6,69.8,70,29.93,10.0,NW,9.2,-,N/A,,Mostly Cloudy,310,2012-10-15 17:15:00
1:35 PM,80.6,69.8,70,29.92,10.0,West,10.4,-,N/A,,Scattered Clouds,270,2012-10-15 17:35:00
1:55 PM,84.2,69.8,62,29.91,10.0,West,9.2,-,N/A,,Clear,280,2012-10-15 17:55:00
2:15 PM,86.0,68.0,55,29.90,10.0,West,10.4,-,N/A,,Clear,260,2012-10-15 18:15:00
2:35 PM,86.0,69.8,58,29.89,10.0,West,10.4,-,N/A,,Scattered Clouds,260,2012-10-15 18:35:00
2:55 PM,82.4,68.0,62,29.88,10.0,WNW,8.1,-,N/A,,Scattered Clouds,290,2012-10-15 18:55:00
3:15 PM,84.2,68.0,58,29.87,10.0,WNW,9.2,-,N/A,,Clear,290,2012-10-15 19:15:00
3:35 PM,86.0,68.0,55,29.87,10.0,West,13.8,-,N/A,,Scattered Clouds,270,2012-10-15 19:35:00
3:55 PM,84.2,68.0,58,29.85,10.0,NW,9.2,-,N/A,,Scattered Clouds,310,2012-10-15 19:55:00
4:15 PM,86.0,64.4,48,29.85,10.0,NW,10.4,-,N/A,,Scattered Clouds,310,2012-10-15 20:15:00
4:35 PM,84.2,64.4,51,29.85,10.0,NW,12.7,-,N/A,,Mostly Cloudy,310,2012-10-15 20:35:00
4:55 PM,86.0,64.4,48,29.84,10.0,WNW,11.5,-,N/A,,Scattered Clouds,300,2012-10-15 20:55:00
5:15 PM,86.0,62.6,45,29.84,10.0,WNW,13.8,17.3,N/A,,Scattered Clouds,300,2012-10-15 21:15:00
5:35 PM,82.4,62.6,51,29.84,10.0,NW,10.4,-,N/A,,Clear,310,2012-10-15 21:35:00
5:55 PM,82.4,62.6,51,29.85,10.0,NNW,11.5,17.3,N/A,,Clear,330,2012-10-15 21:55:00
6:15 PM,82.4,59.0,45,29.85,10.0,NW,10.4,17.3,N/A,,Clear,310,2012-10-15 22:15:00
6:35 PM,82.4,60.8,48,29.85,10.0,NW,10.4,-,N/A,,Clear,320,2012-10-15 22:35:00
6:55 PM,80.6,60.8,51,29.86,10.0,NW,9.2,-,N/A,,Clear,320,2012-10-15 22:55:00
7:15 PM,78.8,60.8,54,29.86,10.0,NNW,8.1,-,N/A,,Clear,340,2012-10-15 23:15:00
7:35 PM,77.0,60.8,57,29.87,10.0,NNW,5.8,-,N/A,,Clear,330,2012-10-15 23:35:00
7:55 PM,77.0,62.6,61,29.88,10.0,NNW,5.8,-,N/A,,Clear,330,2012-10-15 23:55:00
8:15 PM,77.0,60.8,57,29.88,10.0,NNW,5.8,-,N/A,,Clear,330,2012-10-16 00:15:00
8:35 PM,73.4,60.8,65,29.89,10.0,NNW,5.8,-,N/A,,Clear,330,2012-10-16 00:35:00
8:55 PM,73.4,59.0,61,29.90,10.0,NNW,5.8,-,N/A,,Clear,340,2012-10-16 00:55:00
9:15 PM,71.6,59.0,64,29.91,10.0,NNW,5.8,-,N/A,,Clear,340,2012-10-16 01:15:00
9:35 PM,71.6,59.0,64,29.90,10.0,NNW,4.6,-,N/A,,Clear,330,2012-10-16 01:35:00
9:55 PM,71.6,59.0,64,29.90,10.0,NNW,5.8,-,N/A,,Clear,340,2012-10-16 01:55:00
10:15 PM,71.6,60.8,69,29.91,10.0,NNW,4.6,-,N/A,,Clear,340,2012-10-16 02:15:00
10:35 PM,69.8,59.0,68,29.91,10.0,NNW,4.6,-,N/A,,Clear,340,2012-10-16 02:35:00
10:55 PM,69.8,59.0,68,29.92,10.0,NNW,5.8,-,N/A,,Clear,340,2012-10-16 02:55:00
11:15 PM,69.8,59.0,68,29.92,10.0,North,6.9,-,N/A,,Clear,350,2012-10-16 03:15:00
11:35 PM,68.0,57.2,68,29.93,10.0,North,6.9,-,N/A,,Clear,350,2012-10-16 03:35:00